Year,Month,Day,Hour,Minute,Value (Times are PST for temperature in C)
2009,05,20,00,00,7.10
2009,05,20,00,01,7.10
2009,05,20,00,02,7.20
2009,05,20,00,03,7.20
2009,05,20,00,04,7.20
2009,05,20,00,05,7.20
2009,05,20,00,06,7.20
2009,05,20,00,07,7.20
2009,05,20,00,08,7.20
2009,05,20,00,09,7.20
2009,05,20,00,10,7.20
2009,05,20,00,11,7.20
2009,05,20,00,12,7.20
2009,05,20,00,13,7.20
2009,05,20,00,14,7.20
2009,05,20,00,15,7.20
2009,05,20,00,16,7.20
2009,05,20,00,17,7.20
2009,05,20,00,18,7.20
2009,05,20,00,19,7.20
2009,05,20,00,20,7.20
2009,05,20,00,21,7.20
2009,05,20,00,22,7.20
2009,05,20,00,23,7.20
2009,05,20,00,24,7.20
2009,05,20,00,25,7.20
2009,05,20,00,26,7.20
2009,05,20,00,27,7.20
2009,05,20,00,28,7.20
2009,05,20,00,29,7.20
2009,05,20,00,30,7.10
2009,05,20,00,31,7.10
2009,05,20,00,32,7.10
2009,05,20,00,33,7.10
2009,05,20,00,34,7.10
2009,05,20,00,35,7.20
2009,05,20,00,36,7.20
2009,05,20,00,37,7.20
2009,05,20,00,38,7.20
2009,05,20,00,39,7.20
2009,05,20,00,40,7.20
2009,05,20,00,41,7.20
2009,05,20,00,42,7.20
2009,05,20,00,43,7.20
2009,05,20,00,44,7.20
2009,05,20,00,45,7.20
2009,05,20,00,46,7.10
2009,05,20,00,47,7.10
2009,05,20,00,48,7.10
2009,05,20,00,49,7.10
2009,05,20,00,50,7.00
2009,05,20,00,51,7.00
2009,05,20,00,52,7.00
2009,05,20,00,53,7.00
2009,05,20,00,54,6.90
2009,05,20,00,55,6.90
2009,05,20,00,56,6.90
2009,05,20,00,57,6.90
2009,05,20,00,58,6.90
2009,05,20,00,59,6.90
2009,05,20,01,00,6.90
2009,05,20,01,01,6.90
2009,05,20,01,02,6.80
2009,05,20,01,03,6.80
2009,05,20,01,04,6.80
2009,05,20,01,05,6.80
2009,05,20,01,06,6.80
2009,05,20,01,07,6.80
2009,05,20,01,08,6.80
2009,05,20,01,09,6.80
2009,05,20,01,10,6.80
2009,05,20,01,11,6.80
2009,05,20,01,12,6.80
2009,05,20,01,13,6.90
2009,05,20,01,14,6.90
2009,05,20,01,15,6.80
2009,05,20,01,16,6.80
2009,05,20,01,17,6.80
2009,05,20,01,18,6.80
2009,05,20,01,19,6.80
2009,05,20,01,20,6.80
2009,05,20,01,21,6.80
2009,05,20,01,22,6.80
2009,05,20,01,23,6.80
2009,05,20,01,24,6.90
2009,05,20,01,25,6.90
2009,05,20,01,26,6.90
2009,05,20,01,27,6.80
2009,05,20,01,28,6.90
2009,05,20,01,29,6.90
2009,05,20,01,30,6.90
2009,05,20,01,31,6.90
2009,05,20,01,32,6.90
2009,05,20,01,33,6.90
2009,05,20,01,34,6.80
2009,05,20,01,35,6.80
2009,05,20,01,36,6.80
2009,05,20,01,37,6.80
2009,05,20,01,38,6.80
2009,05,20,01,39,6.80
2009,05,20,01,40,6.80
2009,05,20,01,41,6.80
2009,05,20,01,42,6.80
2009,05,20,01,43,6.80
2009,05,20,01,44,6.80
2009,05,20,01,45,6.80
2009,05,20,01,46,6.80
2009,05,20,01,47,6.80
2009,05,20,01,48,6.80
2009,05,20,01,49,6.80
2009,05,20,01,50,6.80
2009,05,20,01,51,6.80
2009,05,20,01,52,6.80
2009,05,20,01,53,6.80
2009,05,20,01,54,6.70
2009,05,20,01,55,6.70
2009,05,20,01,56,6.60
2009,05,20,01,57,6.60
2009,05,20,01,58,6.60
2009,05,20,01,59,6.50
2009,05,20,02,00,6.40
2009,05,20,02,01,6.40
2009,05,20,02,02,6.40
2009,05,20,02,03,6.30
2009,05,20,02,04,6.20
2009,05,20,02,05,6.20
2009,05,20,02,06,6.20
2009,05,20,02,07,6.20
2009,05,20,02,08,6.10
2009,05,20,02,09,6.10
2009,05,20,02,10,6.10
2009,05,20,02,11,6.00
2009,05,20,02,12,6.00
2009,05,20,02,13,5.90
2009,05,20,02,14,5.90
2009,05,20,02,15,5.90
2009,05,20,02,16,5.80
2009,05,20,02,17,5.80
2009,05,20,02,18,5.70
2009,05,20,02,19,5.70
2009,05,20,02,20,5.70
2009,05,20,02,21,5.70
2009,05,20,02,22,5.70
2009,05,20,02,23,5.70
2009,05,20,02,24,5.70
2009,05,20,02,25,5.70
2009,05,20,02,26,5.70
2009,05,20,02,27,5.70
2009,05,20,02,28,5.70
2009,05,20,02,29,5.70
2009,05,20,02,30,5.70
2009,05,20,02,31,5.70
2009,05,20,02,32,5.70
2009,05,20,02,33,5.70
2009,05,20,02,34,5.70
2009,05,20,02,35,5.70
2009,05,20,02,36,5.70
2009,05,20,02,37,5.70
2009,05,20,02,38,5.70
2009,05,20,02,39,5.70
2009,05,20,02,40,5.70
2009,05,20,02,41,5.60
2009,05,20,02,42,5.60
2009,05,20,02,43,5.60
2009,05,20,02,44,5.60
2009,05,20,02,45,5.60
2009,05,20,02,46,5.50
2009,05,20,02,47,5.50
2009,05,20,02,48,5.50
2009,05,20,02,49,5.40
2009,05,20,02,50,5.40
2009,05,20,02,51,5.40
2009,05,20,02,52,5.40
2009,05,20,02,53,5.40
2009,05,20,02,54,5.40
2009,05,20,02,55,5.40
2009,05,20,02,56,5.40
2009,05,20,02,57,5.40
2009,05,20,02,58,5.40
2009,05,20,02,59,5.40
2009,05,20,03,00,5.40
2009,05,20,03,01,5.40
2009,05,20,03,02,5.40
2009,05,20,03,03,5.40
2009,05,20,03,04,5.40
2009,05,20,03,05,5.30
2009,05,20,03,06,5.30
2009,05,20,03,07,5.30
2009,05,20,03,08,5.30
2009,05,20,03,09,5.30
2009,05,20,03,10,5.30
2009,05,20,03,11,5.30
2009,05,20,03,12,5.30
2009,05,20,03,13,5.30
2009,05,20,03,14,5.30
2009,05,20,03,15,5.30
2009,05,20,03,16,5.30
2009,05,20,03,17,5.30
2009,05,20,03,18,5.30
2009,05,20,03,19,5.30
2009,05,20,03,20,5.30
2009,05,20,03,21,5.30
2009,05,20,03,22,5.20
2009,05,20,03,23,5.20
2009,05,20,03,24,5.20
2009,05,20,03,25,5.20
2009,05,20,03,26,5.20
2009,05,20,03,27,5.20
2009,05,20,03,28,5.20
2009,05,20,03,29,5.20
2009,05,20,03,30,5.20
2009,05,20,03,31,5.20
2009,05,20,03,32,5.20
2009,05,20,03,33,5.20
2009,05,20,03,34,5.20
2009,05,20,03,35,5.20
2009,05,20,03,36,5.20
2009,05,20,03,37,5.20
2009,05,20,03,38,5.10
2009,05,20,03,39,5.10
2009,05,20,03,40,5.10
2009,05,20,03,41,5.10
2009,05,20,03,42,5.10
2009,05,20,03,43,5.10
2009,05,20,03,44,5.10
2009,05,20,03,45,5.10
2009,05,20,03,46,5.10
2009,05,20,03,47,5.10
2009,05,20,03,48,5.00
2009,05,20,03,49,4.90
2009,05,20,03,50,4.90
2009,05,20,03,51,4.90
2009,05,20,03,52,4.90
2009,05,20,03,53,4.90
2009,05,20,03,54,4.90
2009,05,20,03,55,5.10
2009,05,20,03,56,5.10
2009,05,20,03,57,5.10
2009,05,20,03,58,5.10
2009,05,20,03,59,5.10
2009,05,20,04,00,5.10
2009,05,20,04,01,5.10
2009,05,20,04,02,5.10
2009,05,20,04,03,5.10
2009,05,20,04,04,5.10
2009,05,20,04,05,5.10
2009,05,20,04,06,5.10
2009,05,20,04,07,5.10
2009,05,20,04,08,5.10
2009,05,20,04,09,5.10
2009,05,20,04,10,5.10
2009,05,20,04,11,5.10
2009,05,20,04,12,5.20
2009,05,20,04,13,5.20
2009,05,20,04,14,5.20
2009,05,20,04,15,5.20
2009,05,20,04,16,5.20
2009,05,20,04,17,5.20
2009,05,20,04,18,5.20
2009,05,20,04,19,5.20
2009,05,20,04,20,5.20
2009,05,20,04,21,5.20
2009,05,20,04,22,5.20
2009,05,20,04,23,5.20
2009,05,20,04,24,5.20
2009,05,20,04,25,5.20
2009,05,20,04,26,5.20
2009,05,20,04,27,5.20
2009,05,20,04,28,5.20
2009,05,20,04,29,5.20
2009,05,20,04,30,5.20
2009,05,20,04,31,5.20
2009,05,20,04,32,5.20
2009,05,20,04,33,5.30
2009,05,20,04,34,5.30
2009,05,20,04,35,5.30
2009,05,20,04,36,5.30
2009,05,20,04,37,5.30
2009,05,20,04,38,5.30
2009,05,20,04,39,5.30
2009,05,20,04,40,5.30
2009,05,20,04,41,5.20
2009,05,20,04,42,5.20
2009,05,20,04,43,5.10
2009,05,20,04,44,5.10
2009,05,20,04,45,5.00
2009,05,20,04,46,4.90
2009,05,20,04,47,4.90
2009,05,20,04,48,4.90
2009,05,20,04,49,4.90
2009,05,20,04,50,4.90
2009,05,20,04,51,4.90
2009,05,20,04,52,4.90
2009,05,20,04,53,4.90
2009,05,20,04,54,4.90
2009,05,20,04,55,4.80
2009,05,20,04,56,4.80
2009,05,20,04,57,4.70
2009,05,20,04,58,4.70
2009,05,20,04,59,4.70
2009,05,20,05,00,4.60
2009,05,20,05,01,4.60
2009,05,20,05,02,4.60
2009,05,20,05,03,4.60
2009,05,20,05,04,4.60
2009,05,20,05,05,4.70
2009,05,20,05,06,4.70
2009,05,20,05,07,4.80
2009,05,20,05,08,4.80
2009,05,20,05,09,4.90
2009,05,20,05,10,4.90
2009,05,20,05,11,4.90
2009,05,20,05,12,4.90
2009,05,20,05,13,4.90
2009,05,20,05,14,4.90
2009,05,20,05,15,4.90
2009,05,20,05,16,5.00
2009,05,20,05,17,5.10
2009,05,20,05,18,5.10
2009,05,20,05,19,5.10
2009,05,20,05,20,5.10
2009,05,20,05,21,5.10
2009,05,20,05,22,5.10
2009,05,20,05,23,5.10
2009,05,20,05,24,5.10
2009,05,20,05,25,5.10
2009,05,20,05,26,4.90
2009,05,20,05,27,4.90
2009,05,20,05,28,4.90
2009,05,20,05,29,4.90
2009,05,20,05,30,4.90
2009,05,20,05,31,4.90
2009,05,20,05,32,4.90
2009,05,20,05,33,4.90
2009,05,20,05,34,4.90
2009,05,20,05,35,4.90
2009,05,20,05,36,4.90
2009,05,20,05,37,4.90
2009,05,20,05,38,4.90
2009,05,20,05,39,4.90
2009,05,20,05,40,4.90
2009,05,20,05,41,4.90
2009,05,20,05,42,4.90
2009,05,20,05,43,4.90
2009,05,20,05,44,4.90
2009,05,20,05,45,4.90
2009,05,20,05,46,4.90
2009,05,20,05,47,4.90
2009,05,20,05,48,5.00
2009,05,20,05,49,5.10
2009,05,20,05,50,5.10
2009,05,20,05,51,5.10
2009,05,20,05,52,5.10
2009,05,20,05,53,5.20
2009,05,20,05,54,5.20
2009,05,20,05,55,5.20
2009,05,20,05,56,5.20
2009,05,20,05,57,5.20
2009,05,20,05,58,5.20
2009,05,20,05,59,5.20
2009,05,20,06,00,5.20
2009,05,20,06,01,5.20
2009,05,20,06,02,5.10
2009,05,20,06,03,5.10
2009,05,20,06,04,5.10
2009,05,20,06,05,5.10
2009,05,20,06,06,5.10
2009,05,20,06,07,5.10
2009,05,20,06,08,5.10
2009,05,20,06,09,5.10
2009,05,20,06,10,5.10
2009,05,20,06,11,4.90
2009,05,20,06,12,4.90
2009,05,20,06,13,4.90
2009,05,20,06,14,4.90
2009,05,20,06,15,4.90
2009,05,20,06,16,5.00
2009,05,20,06,17,5.10
2009,05,20,06,18,5.00
2009,05,20,06,19,4.90
2009,05,20,06,20,4.90
2009,05,20,06,21,4.90
2009,05,20,06,22,4.90
2009,05,20,06,23,4.90
2009,05,20,06,24,4.90
2009,05,20,06,25,4.80
2009,05,20,06,26,4.80
2009,05,20,06,27,4.80
2009,05,20,06,28,4.80
2009,05,20,06,29,4.80
2009,05,20,06,30,4.90
2009,05,20,06,31,4.90
2009,05,20,06,32,4.90
2009,05,20,06,33,4.90
2009,05,20,06,34,4.90
2009,05,20,06,35,4.90
2009,05,20,06,36,4.90
2009,05,20,06,37,5.00
2009,05,20,06,38,5.10
2009,05,20,06,39,5.10
2009,05,20,06,40,5.10
2009,05,20,06,41,5.10
2009,05,20,06,42,5.20
2009,05,20,06,43,5.20
2009,05,20,06,44,5.10
2009,05,20,06,45,5.10
2009,05,20,06,46,5.10
2009,05,20,06,47,5.10
2009,05,20,06,48,5.10
2009,05,20,06,49,5.10
2009,05,20,06,50,5.10
2009,05,20,06,51,5.10
2009,05,20,06,52,5.10
2009,05,20,06,53,5.10
2009,05,20,06,54,5.10
2009,05,20,06,55,5.10
2009,05,20,06,56,5.20
2009,05,20,06,57,5.20
2009,05,20,06,58,5.20
2009,05,20,06,59,5.30
2009,05,20,07,00,5.30
2009,05,20,07,01,5.30
2009,05,20,07,02,5.40
2009,05,20,07,03,5.50
2009,05,20,07,04,5.60
2009,05,20,07,05,5.60
2009,05,20,07,06,5.70
2009,05,20,07,07,5.80
2009,05,20,07,08,5.90
2009,05,20,07,09,6.00
2009,05,20,07,10,6.10
2009,05,20,07,11,6.20
2009,05,20,07,12,6.20
2009,05,20,07,13,6.30
2009,05,20,07,14,6.40
2009,05,20,07,15,6.50
2009,05,20,07,16,6.60
2009,05,20,07,17,6.70
2009,05,20,07,18,6.80
2009,05,20,07,19,7.00
2009,05,20,07,20,7.10
2009,05,20,07,21,7.30
2009,05,20,07,22,7.40
2009,05,20,07,23,7.70
2009,05,20,07,24,7.80
2009,05,20,07,25,8.00
2009,05,20,07,26,8.10
2009,05,20,07,27,8.30
2009,05,20,07,28,8.40
2009,05,20,07,29,8.50
2009,05,20,07,30,8.60
2009,05,20,07,31,8.70
2009,05,20,07,32,8.80
2009,05,20,07,33,8.90
2009,05,20,07,34,9.00
2009,05,20,07,35,9.00
2009,05,20,07,36,9.10
2009,05,20,07,37,9.20
2009,05,20,07,38,9.20
2009,05,20,07,39,9.20
2009,05,20,07,40,9.20
2009,05,20,07,41,9.20
2009,05,20,07,42,9.20
2009,05,20,07,43,9.20
2009,05,20,07,44,9.30
2009,05,20,07,45,9.30
2009,05,20,07,46,9.30
2009,05,20,07,47,9.40
2009,05,20,07,48,9.40
2009,05,20,07,49,9.40
2009,05,20,07,50,9.40
2009,05,20,07,51,9.40
2009,05,20,07,52,9.40
2009,05,20,07,53,9.40
2009,05,20,07,54,9.40
2009,05,20,07,55,9.40
2009,05,20,07,56,9.40
2009,05,20,07,57,9.40
2009,05,20,07,58,9.40
2009,05,20,07,59,9.40
2009,05,20,08,00,9.40
2009,05,20,08,01,9.50
2009,05,20,08,02,9.50
2009,05,20,08,03,9.60
2009,05,20,08,04,9.60
2009,05,20,08,05,9.70
2009,05,20,08,06,9.70
2009,05,20,08,07,9.70
2009,05,20,08,08,9.70
2009,05,20,08,09,9.70
2009,05,20,08,10,9.70
2009,05,20,08,11,9.70
2009,05,20,08,12,9.70
2009,05,20,08,13,9.80
2009,05,20,08,14,9.80
2009,05,20,08,15,9.80
2009,05,20,08,16,9.90
2009,05,20,08,17,9.90
2009,05,20,08,18,9.90
2009,05,20,08,19,10.00
2009,05,20,08,20,10.10
2009,05,20,08,21,10.10
2009,05,20,08,22,10.10
2009,05,20,08,23,10.10
2009,05,20,08,24,10.10
2009,05,20,08,25,10.10
2009,05,20,08,26,10.10
2009,05,20,08,27,10.20
2009,05,20,08,28,10.20
2009,05,20,08,29,10.30
2009,05,20,08,30,10.30
2009,05,20,08,31,10.40
2009,05,20,08,32,10.40
2009,05,20,08,33,10.40
2009,05,20,08,34,10.40
2009,05,20,08,35,10.40
2009,05,20,08,36,10.50
2009,05,20,08,37,10.60
2009,05,20,08,38,10.60
2009,05,20,08,39,10.60
2009,05,20,08,40,10.70
2009,05,20,08,41,10.70
2009,05,20,08,42,10.70
2009,05,20,08,43,10.70
2009,05,20,08,44,10.80
2009,05,20,08,45,10.80
2009,05,20,08,46,10.90
2009,05,20,08,47,10.90
2009,05,20,08,48,11.00
2009,05,20,08,49,11.10
2009,05,20,08,50,11.10
2009,05,20,08,51,11.10
2009,05,20,08,52,11.10
2009,05,20,08,53,11.10
2009,05,20,08,54,11.10
2009,05,20,08,55,11.10
2009,05,20,08,56,11.20
2009,05,20,08,57,11.20
2009,05,20,08,58,11.30
2009,05,20,08,59,11.30
2009,05,20,09,00,11.30
2009,05,20,09,01,11.30
2009,05,20,09,02,11.30
2009,05,20,09,03,11.30
2009,05,20,09,04,11.30
2009,05,20,09,05,11.30
2009,05,20,09,06,11.20
2009,05,20,09,07,11.30
2009,05,20,09,08,11.40
2009,05,20,09,09,11.40
2009,05,20,09,10,11.40
2009,05,20,09,11,11.40
2009,05,20,09,12,11.40
2009,05,20,09,13,11.50
2009,05,20,09,14,11.60
2009,05,20,09,15,11.60
2009,05,20,09,16,11.70
2009,05,20,09,17,11.70
2009,05,20,09,18,11.70
2009,05,20,09,19,11.80
2009,05,20,09,20,11.70
2009,05,20,09,21,11.70
2009,05,20,09,22,11.80
2009,05,20,09,23,11.80
2009,05,20,09,24,11.80
2009,05,20,09,25,11.90
2009,05,20,09,26,11.90
2009,05,20,09,27,11.90
2009,05,20,09,28,11.90
2009,05,20,09,29,11.80
2009,05,20,09,30,11.90
2009,05,20,09,31,11.90
2009,05,20,09,32,11.90
2009,05,20,09,33,11.90
2009,05,20,09,34,11.90
2009,05,20,09,35,11.80
2009,05,20,09,36,11.80
2009,05,20,09,37,11.80
2009,05,20,09,38,11.70
2009,05,20,09,39,11.60
2009,05,20,09,40,11.60
2009,05,20,09,41,11.60
2009,05,20,09,42,11.70
2009,05,20,09,43,11.70
2009,05,20,09,44,11.60
2009,05,20,09,45,11.70
2009,05,20,09,46,11.70
2009,05,20,09,47,11.80
2009,05,20,09,48,11.80
2009,05,20,09,49,11.90
2009,05,20,09,50,11.90
2009,05,20,09,51,11.90
2009,05,20,09,52,11.80
2009,05,20,09,53,11.80
2009,05,20,09,54,11.70
2009,05,20,09,55,11.70
2009,05,20,09,56,11.60
2009,05,20,09,57,11.50
2009,05,20,09,58,11.40
2009,05,20,09,59,11.40
2009,05,20,10,00,11.40
2009,05,20,10,01,11.40
2009,05,20,10,02,11.40
2009,05,20,10,03,11.40
2009,05,20,10,04,11.30
2009,05,20,10,05,11.30
2009,05,20,10,06,11.30
2009,05,20,10,07,11.30
2009,05,20,10,08,11.20
2009,05,20,10,09,11.20
2009,05,20,10,10,11.20
2009,05,20,10,11,11.30
2009,05,20,10,12,11.30
2009,05,20,10,13,11.40
2009,05,20,10,14,11.40
2009,05,20,10,15,11.40
2009,05,20,10,16,11.40
2009,05,20,10,17,11.40
2009,05,20,10,18,11.40
2009,05,20,10,19,11.30
2009,05,20,10,20,11.40
2009,05,20,10,21,11.40
2009,05,20,10,22,11.40
2009,05,20,10,23,11.60
2009,05,20,10,24,11.60
2009,05,20,10,25,11.60
2009,05,20,10,26,11.60
2009,05,20,10,27,11.60
2009,05,20,10,28,11.60
2009,05,20,10,29,11.60
2009,05,20,10,30,11.60
2009,05,20,10,31,11.60
2009,05,20,10,32,11.60
2009,05,20,10,33,11.60
2009,05,20,10,34,11.60
2009,05,20,10,35,11.50
2009,05,20,10,36,11.40
2009,05,20,10,37,11.30
2009,05,20,10,38,11.30
2009,05,20,10,39,11.30
2009,05,20,10,40,11.40
2009,05,20,10,41,11.60
2009,05,20,10,42,11.70
2009,05,20,10,43,11.80
2009,05,20,10,44,11.70
2009,05,20,10,45,11.70
2009,05,20,10,46,11.70
2009,05,20,10,47,11.70
2009,05,20,10,48,11.80
2009,05,20,10,49,11.80
2009,05,20,10,50,11.90
2009,05,20,10,51,12.00
2009,05,20,10,52,12.20
2009,05,20,10,53,12.20
2009,05,20,10,54,12.20
2009,05,20,10,55,12.10
2009,05,20,10,56,12.10
2009,05,20,10,57,12.20
2009,05,20,10,58,12.10
2009,05,20,10,59,12.10
2009,05,20,11,00,12.00
2009,05,20,11,01,11.90
2009,05,20,11,02,11.90
2009,05,20,11,03,11.90
2009,05,20,11,04,11.80
2009,05,20,11,05,11.80
2009,05,20,11,06,11.80
2009,05,20,11,07,11.80
2009,05,20,11,08,11.80
2009,05,20,11,09,11.90
2009,05,20,11,10,12.00
2009,05,20,11,11,12.10
2009,05,20,11,12,12.20
2009,05,20,11,13,12.40
2009,05,20,11,14,12.50
2009,05,20,11,15,12.60
2009,05,20,11,16,12.60
2009,05,20,11,17,12.70
2009,05,20,11,18,12.70
2009,05,20,11,19,12.60
2009,05,20,11,20,12.60
2009,05,20,11,21,12.50
2009,05,20,11,22,12.50
2009,05,20,11,23,12.60
2009,05,20,11,24,12.70
2009,05,20,11,25,12.80
2009,05,20,11,26,12.80
2009,05,20,11,27,12.80
2009,05,20,11,28,12.70
2009,05,20,11,29,12.60
2009,05,20,11,30,12.50
2009,05,20,11,31,12.50
2009,05,20,11,32,12.60
2009,05,20,11,33,12.60
2009,05,20,11,34,12.70
2009,05,20,11,35,12.80
2009,05,20,11,36,12.80
2009,05,20,11,37,12.90
2009,05,20,11,38,12.90
2009,05,20,11,39,13.00
2009,05,20,11,40,13.00
2009,05,20,11,41,13.00
2009,05,20,11,42,13.00
2009,05,20,11,43,13.00
2009,05,20,11,44,13.00
2009,05,20,11,45,13.00
2009,05,20,11,46,12.90
2009,05,20,11,47,12.80
2009,05,20,11,48,12.80
2009,05,20,11,49,12.80
2009,05,20,11,50,12.80
2009,05,20,11,51,12.80
2009,05,20,11,52,12.70
2009,05,20,11,53,12.70
2009,05,20,11,54,12.70
2009,05,20,11,55,12.70
2009,05,20,11,56,12.60
2009,05,20,11,57,12.50
2009,05,20,11,58,12.50
2009,05,20,11,59,12.40
2009,05,20,12,00,12.50
2009,05,20,12,01,12.50
2009,05,20,12,02,12.40
2009,05,20,12,03,12.40
2009,05,20,12,04,12.40
2009,05,20,12,05,12.40
2009,05,20,12,06,12.40
2009,05,20,12,07,12.40
2009,05,20,12,08,12.50
2009,05,20,12,09,12.60
2009,05,20,12,10,12.70
2009,05,20,12,11,12.80
2009,05,20,12,12,12.80
2009,05,20,12,13,12.80
2009,05,20,12,14,12.80
2009,05,20,12,15,12.70
2009,05,20,12,16,12.60
2009,05,20,12,17,12.50
2009,05,20,12,18,12.40
2009,05,20,12,19,12.40
2009,05,20,12,20,12.40
2009,05,20,12,21,12.40
2009,05,20,12,22,12.30
2009,05,20,12,23,12.30
2009,05,20,12,24,12.30
2009,05,20,12,25,12.30
2009,05,20,12,26,12.30
2009,05,20,12,27,12.30
2009,05,20,12,28,12.30
2009,05,20,12,29,12.40
2009,05,20,12,30,12.40
2009,05,20,12,31,12.50
2009,05,20,12,32,12.60
2009,05,20,12,33,12.80
2009,05,20,12,34,12.80
2009,05,20,12,35,12.80
2009,05,20,12,36,12.80
2009,05,20,12,37,12.90
2009,05,20,12,38,13.00
2009,05,20,12,39,13.10
2009,05,20,12,40,13.10
2009,05,20,12,41,13.00
2009,05,20,12,42,13.00
2009,05,20,12,43,12.90
2009,05,20,12,44,13.00
2009,05,20,12,45,13.00
2009,05,20,12,46,13.10
2009,05,20,12,47,13.30
2009,05,20,12,48,13.50
2009,05,20,12,49,13.50
2009,05,20,12,50,13.60
2009,05,20,12,51,13.60
2009,05,20,12,52,13.60
2009,05,20,12,53,13.60
2009,05,20,12,54,13.60
2009,05,20,12,55,13.60
2009,05,20,12,56,13.70
2009,05,20,12,57,13.70
2009,05,20,12,58,13.70
2009,05,20,12,59,13.70
2009,05,20,13,00,13.90
2009,05,20,13,01,13.80
2009,05,20,13,02,13.60
2009,05,20,13,03,13.40
2009,05,20,13,04,13.20
2009,05,20,13,05,13.00
2009,05,20,13,06,13.00
2009,05,20,13,07,13.10
2009,05,20,13,08,13.30
2009,05,20,13,09,13.50
2009,05,20,13,10,13.80
2009,05,20,13,11,14.00
2009,05,20,13,12,14.20
2009,05,20,13,13,14.20
2009,05,20,13,14,14.00
2009,05,20,13,15,13.80
2009,05,20,13,16,13.70
2009,05,20,13,17,13.60
2009,05,20,13,18,13.40
2009,05,20,13,19,13.30
2009,05,20,13,20,13.30
2009,05,20,13,21,13.30
2009,05,20,13,22,13.30
2009,05,20,13,23,13.20
2009,05,20,13,24,13.10
2009,05,20,13,25,13.00
2009,05,20,13,26,13.00
2009,05,20,13,27,12.80
2009,05,20,13,28,12.50
2009,05,20,13,29,12.40
2009,05,20,13,30,12.40
2009,05,20,13,31,12.50
2009,05,20,13,32,12.70
2009,05,20,13,33,12.90
2009,05,20,13,34,13.10
2009,05,20,13,35,13.10
2009,05,20,13,36,13.10
2009,05,20,13,37,13.10
2009,05,20,13,38,13.00
2009,05,20,13,39,12.90
2009,05,20,13,40,12.80
2009,05,20,13,41,12.80
2009,05,20,13,42,12.80
2009,05,20,13,43,12.80
2009,05,20,13,44,12.80
2009,05,20,13,45,12.80
2009,05,20,13,46,12.90
2009,05,20,13,47,12.90
2009,05,20,13,48,12.80
2009,05,20,13,49,12.90
2009,05,20,13,50,13.00
2009,05,20,13,51,13.20
2009,05,20,13,52,13.30
2009,05,20,13,53,13.30
2009,05,20,13,54,13.10
2009,05,20,13,55,13.10
2009,05,20,13,56,13.20
2009,05,20,13,57,13.30
2009,05,20,13,58,13.20
2009,05,20,13,59,13.20
2009,05,20,14,00,13.30
2009,05,20,14,01,13.20
2009,05,20,14,02,13.20
2009,05,20,14,03,13.30
2009,05,20,14,04,13.20
2009,05,20,14,05,13.10
2009,05,20,14,06,13.10
2009,05,20,14,07,13.20
2009,05,20,14,08,13.40
2009,05,20,14,09,13.60
2009,05,20,14,10,13.50
2009,05,20,14,11,13.50
2009,05,20,14,12,13.50
2009,05,20,14,13,13.60
2009,05,20,14,14,13.60
2009,05,20,14,15,13.60
2009,05,20,14,16,13.70
2009,05,20,14,17,13.70
2009,05,20,14,18,13.90
2009,05,20,14,19,14.00
2009,05,20,14,20,14.10
2009,05,20,14,21,14.20
2009,05,20,14,22,14.30
2009,05,20,14,23,14.60
2009,05,20,14,24,14.80
2009,05,20,14,25,14.80
2009,05,20,14,26,14.80
2009,05,20,14,27,14.80
2009,05,20,14,28,14.60
2009,05,20,14,29,14.60
2009,05,20,14,30,14.60
2009,05,20,14,31,14.70
2009,05,20,14,32,14.60
2009,05,20,14,33,14.50
2009,05,20,14,34,14.60
2009,05,20,14,35,14.60
2009,05,20,14,36,14.60
2009,05,20,14,37,14.60
2009,05,20,14,38,14.70
2009,05,20,14,39,14.60
2009,05,20,14,40,14.50
2009,05,20,14,41,14.40
2009,05,20,14,42,14.40
2009,05,20,14,43,14.30
2009,05,20,14,44,14.20
2009,05,20,14,45,14.10
2009,05,20,14,46,14.20
2009,05,20,14,47,14.20
2009,05,20,14,48,14.20
2009,05,20,14,49,14.50
2009,05,20,14,50,14.50
2009,05,20,14,51,14.60
2009,05,20,14,52,14.60
2009,05,20,14,53,14.70
2009,05,20,14,54,14.90
2009,05,20,14,55,15.00
2009,05,20,14,56,15.10
2009,05,20,14,57,15.10
2009,05,20,14,58,15.10
2009,05,20,14,59,15.20
2009,05,20,15,00,15.20
2009,05,20,15,01,15.30
2009,05,20,15,02,15.40
2009,05,20,15,03,15.40
2009,05,20,15,04,15.30
2009,05,20,15,05,15.10
2009,05,20,15,06,15.10
2009,05,20,15,07,15.10
2009,05,20,15,08,15.10
2009,05,20,15,09,15.20
2009,05,20,15,10,15.30
2009,05,20,15,11,15.30
2009,05,20,15,12,15.30
2009,05,20,15,13,15.40
2009,05,20,15,14,15.60
2009,05,20,15,15,15.70
2009,05,20,15,16,15.80
2009,05,20,15,17,15.90
2009,05,20,15,18,16.10
2009,05,20,15,19,16.10
2009,05,20,15,20,16.00
2009,05,20,15,21,15.80
2009,05,20,15,22,15.70
2009,05,20,15,23,15.50
2009,05,20,15,24,15.40
2009,05,20,15,25,15.30
2009,05,20,15,26,15.20
2009,05,20,15,27,15.20
2009,05,20,15,28,15.20
2009,05,20,15,29,15.10
2009,05,20,15,30,15.10
2009,05,20,15,31,15.10
2009,05,20,15,32,15.00
2009,05,20,15,33,15.00
2009,05,20,15,34,15.00
2009,05,20,15,35,14.90
2009,05,20,15,36,14.80
2009,05,20,15,37,14.70
2009,05,20,15,38,14.70
2009,05,20,15,39,14.80
2009,05,20,15,40,14.80
2009,05,20,15,41,14.80
2009,05,20,15,42,14.80
2009,05,20,15,43,14.80
2009,05,20,15,44,14.90
2009,05,20,15,45,15.10
2009,05,20,15,46,15.20
2009,05,20,15,47,15.30
2009,05,20,15,48,15.40
2009,05,20,15,49,15.40
2009,05,20,15,50,15.40
2009,05,20,15,51,15.40
2009,05,20,15,52,15.40
2009,05,20,15,53,15.30
2009,05,20,15,54,15.30
2009,05,20,15,55,15.30
2009,05,20,15,56,15.30
2009,05,20,15,57,15.30
2009,05,20,15,58,15.30
2009,05,20,15,59,15.30
2009,05,20,16,00,15.50
2009,05,20,16,01,15.50
2009,05,20,16,02,15.50
2009,05,20,16,03,15.60
2009,05,20,16,04,15.80
2009,05,20,16,05,16.00
2009,05,20,16,06,16.10
2009,05,20,16,07,16.10
2009,05,20,16,08,16.10
2009,05,20,16,09,16.10
2009,05,20,16,10,16.10
2009,05,20,16,11,16.20
2009,05,20,16,12,16.30
2009,05,20,16,13,16.40
2009,05,20,16,14,16.40
2009,05,20,16,15,16.40
2009,05,20,16,16,16.40
2009,05,20,16,17,16.40
2009,05,20,16,18,16.40
2009,05,20,16,19,16.40
2009,05,20,16,20,16.40
2009,05,20,16,21,16.30
2009,05,20,16,22,16.00
2009,05,20,16,23,15.80
2009,05,20,16,24,15.60
2009,05,20,16,25,15.40
2009,05,20,16,26,15.30
2009,05,20,16,27,15.30
2009,05,20,16,28,15.40
2009,05,20,16,29,15.30
2009,05,20,16,30,15.20
2009,05,20,16,31,15.10
2009,05,20,16,32,15.10
2009,05,20,16,33,15.10
2009,05,20,16,34,15.10
2009,05,20,16,35,15.00
2009,05,20,16,36,14.90
2009,05,20,16,37,14.80
2009,05,20,16,38,14.80
2009,05,20,16,39,14.80
2009,05,20,16,40,14.70
2009,05,20,16,41,14.60
2009,05,20,16,42,14.60
2009,05,20,16,43,14.70
2009,05,20,16,44,14.70
2009,05,20,16,45,14.80
2009,05,20,16,46,14.80
2009,05,20,16,47,14.80
2009,05,20,16,48,14.90
2009,05,20,16,49,14.90
2009,05,20,16,50,15.00
2009,05,20,16,51,15.00
2009,05,20,16,52,15.00
2009,05,20,16,53,15.00
2009,05,20,16,54,14.90
2009,05,20,16,55,14.80
2009,05,20,16,56,14.80
2009,05,20,16,57,14.80
2009,05,20,16,58,14.70
2009,05,20,16,59,14.70
2009,05,20,17,00,14.70
2009,05,20,17,01,14.70
2009,05,20,17,02,14.70
2009,05,20,17,03,14.60
2009,05,20,17,04,14.60
2009,05,20,17,05,14.70
2009,05,20,17,06,14.70
2009,05,20,17,07,14.70
2009,05,20,17,08,14.80
2009,05,20,17,09,14.80
2009,05,20,17,10,14.80
2009,05,20,17,11,14.80
2009,05,20,17,12,14.90
2009,05,20,17,13,14.90
2009,05,20,17,14,14.90
2009,05,20,17,15,14.90
2009,05,20,17,16,14.90
2009,05,20,17,17,14.90
2009,05,20,17,18,14.90
2009,05,20,17,19,14.90
2009,05,20,17,20,14.90
2009,05,20,17,21,14.80
2009,05,20,17,22,14.80
2009,05,20,17,23,14.80
2009,05,20,17,24,14.80
2009,05,20,17,25,14.80
2009,05,20,17,26,14.80
2009,05,20,17,27,14.80
2009,05,20,17,28,14.90
2009,05,20,17,29,14.90
2009,05,20,17,30,14.90
2009,05,20,17,31,14.90
2009,05,20,17,32,14.90
2009,05,20,17,33,15.00
2009,05,20,17,34,15.00
2009,05,20,17,35,15.10
2009,05,20,17,36,15.10
2009,05,20,17,37,15.20
2009,05,20,17,38,15.30
2009,05,20,17,39,15.30
2009,05,20,17,40,15.30
2009,05,20,17,41,15.30